Regional Weather Roundup
Issued by NWS

Home | Current Version | Previous Version | Text Only | Print | Product List | Glossary On
Versions: 1 2 3 4 5 6 7 8 9 10 11 12 13 14 15 16 17 18 19 20 21 22 23 24 25 26 27 28 29 30 31 32 33 34 35 36 37 38 39 40 41 42 43 44 45 46 47 48 49 50
726
ASUS43 KFSD 250310
RWRSD

WEATHER ROUNDUP FOR SOUTH DAKOTA
NATIONAL WEATHER SERVICE SIOUX FALLS SD
1000 PM CDT MON JUL 24 2017

NOTE: "FAIR" INDICATES FEW OR NO CLOUDS BELOW 12,000 FEET WITH NO
SIGNIFICANT WEATHER AND/OR OBSTRUCTIONS TO VISIBILITY.


SDZ001>005-009-010-012>017-250400-
NORTHWEST AND NORTH CENTRAL SOUTH DAKOTA

CITY           SKY/WX    TMP DP  RH WIND       PRES   REMARKS
BUFFALO          N/A     87  54  32 E5        29.79
FAITH            N/A     81  65  58 E10       29.82R
MOBRIDGE       CLOUDY    77  67  71 SE17G23   29.80R
$$

SDZ012>016-024>037-041>051-057-063-072>074-250400-
SOUTHWEST AND SOUTH CENTRAL SOUTH DAKOTA

CITY           SKY/WX    TMP DP  RH WIND       PRES   REMARKS
RAPID CTY ARPT CLEAR     81  48  31 NE9       29.84R
PIERRE         CLEAR     82  59  45 SE12G17   29.76R
CUSTER         CLEAR     77  42  28 E16       30.04R
ELLSWORTH AFB  CLEAR     87  49  27 E6        29.84R
PHILIP         CLEAR     82  64  54 NE6       29.77R
PINE RIDGE     CLEAR     76  55  48 SE7       29.86R
SPEARFISH      FAIR      75  54  46 SE5       29.90R
WINNER         FAIR      80  66  62 SE23G33   29.81R
$$

SDZ004>011-016>023-039-040-250400-
NORTHEAST SOUTH DAKOTA

CITY           SKY/WX    TMP DP  RH WIND       PRES   REMARKS
ABERDEEN       MOCLDY    74  66  76 SE12      29.86R
WATERTOWN      CLOUDY    73  65  75 SE8       29.92R
BROOKINGS      CLEAR     72  65  78 SE16      29.92S
SISSETON         N/A     71  67  87 SE12      29.91R
$$

SDZ017-020-022-023-036>040-048>070-250400-
SOUTHEAST SOUTH DAKOTA

CITY           SKY/WX    TMP DP  RH WIND       PRES   REMARKS
SIOUX FALLS    MOCLDY    76  66  71 SE14      29.92S
HURON          CLOUDY    77  66  68 SE16      29.82S
CHAMBERLAIN    CLOUDY    86  63  47 SE15G23   29.78F
MITCHELL       MOCLDY    81  66  60 SE20G29   29.82F
YANKTON        CLOUDY    79  66  64 SE16      29.89S
$$

ABBREVIATIONS USED IN REMARKS
   TC - TEMPERATURE IN CELSIUS
  WCI - WIND CHILL INDEX
   HX - HEAT INDEX
  VSB - VISIBILITY





USA.gov is the U.S. government's official web portal to all federal, state and local government web resources and services.